User: anonymous   Login
Location: Muenchen
(48.1800°N, 11.5800°E)
Time: 17:44:23
(UTC+01:00)
Language:

Cosmos 2233 Rocket - Orbit

View from above orbital plane
View from above orbital plane
View from above satellite
View from above satellite

Ground track
Ground track

The orbit data is extracted from the following two-line orbital elements,

1 22488U 93008B   15063.21871703  .00000108  00000-0  92261-4 0  9991
2 22488 082.9467 340.5117 0026509 049.7385 104.6726 13.77662026109153
Epoch (UTC): 04 March 2015 05:14:57
Eccentricity: 0.0026509
inclination: 82.9467°
perigee height: 953 km
apogee height: 991 km
right ascension of ascending node: 340.5117°
argument of perigee: 49.7385°
revolutions per day: 13.77662026
mean anomaly at epoch: 104.6726°
orbit number at epoch: 10915

The dashed part of the orbit path shows where the satellite is in the earth's shadow,  

DLR